[[{"header":{"parameterUnit":"m.s-1","parameterCategory":1,"la1":30.2991,"la2":30.254,"lo1":-89.0895,"lo2":-89.0444,"dy":0.0017,"dx":0.0017,"nx":28,"ny":28,"refTime":"2023-04-08T21:00:00:Z","depth":0,"parameterNumber":2,"parameterNumberName":"U-component_of_WINDS"},"data":[0,0,0,0,0,0,0,0,0,0,0,0,0,0,0,0,0,0,0,0,0,0,0,0,0,0,0,0,0,0,0,0,0,0,0,0,0,0,0,0,0,0,0,0,0,0,0,0,0,0,0,0,0,0,0,0,0,0,-3.4055,-3.4056,0,-3.4115,-3.4116,-3.4117,-3.4057,-3.4054,-3.4052,-3.405,-3.4111,-3.4114,-3.4118,0,0,0,0,0,0,0,0,0,0,0,0,0,-3.3888,-3.3891,-3.4055,-3.4056,-3.4057,-3.4115,-3.4116,-3.4117,-3.4057,-3.4054,-3.4052,-3.4049,-3.4109,-3.4114,-3.4118,0,0,0,0,0,0,0,0,0,0,0,0,0,-3.3955,-3.3892,-3.4055,-3.4034,-3.4033,-3.4115,-3.4116,-3.4117,-3.4058,-3.4054,-3.4051,-3.4047,-3.4108,-3.4113,-3.4119,-3.4225,0,0,-3.4137,-3.4139,0,0,0,0,0,0,0,0,-3.3952,-3.3962,-3.4036,-3.4036,-3.4034,-3.4075,-3.4079,-3.4153,-3.4059,-3.4048,-3.405,-3.4046,-3.4102,-3.4108,-3.4127,-3.4228,-3.423,-3.4137,-3.4141,-3.4143,-3.4145,0,0,0,0,0,0,0,-3.3947,-3.3959,-3.4079,-3.4038,-3.4036,-3.4021,-3.4027,-3.4093,-3.4094,-3.4049,-3.4045,-3.4053,-3.41,-3.4121,-3.4128,-3.4231,-3.4137,-3.4142,-3.4146,-3.4148,-3.4422,-3.4426,0,0,0,0,0,0,-3.3945,-3.3955,-3.4077,-3.4081,-3.3983,-3.4027,-3.4033,-3.4066,-3.4093,-3.4094,-3.4056,-3.405,-3.4113,-3.4121,-3.413,-3.4255,-3.4143,-3.4148,-3.4152,-3.4418,-3.4423,-3.4427,0,0,0,0,0,0,-3.3941,-3.3956,-3.4075,-3.4017,-3.4031,-3.4034,-3.407,-3.4069,-3.4089,-3.4098,-3.4098,-3.4077,-3.4111,-3.4121,-3.4202,-3.4257,-3.4151,-3.4156,-3.4414,-3.442,-3.4425,-3.4508,0,0,0,0,0,0,-3.3937,-3.3955,-3.3996,-3.4018,-3.4034,-3.4147,-3.4074,-3.4072,-3.41,-3.4092,-3.4118,-3.4119,-3.4109,-3.4194,-3.4207,-3.4263,-3.4161,-3.4409,-3.4416,-3.4423,-3.45,-3.4516,-3.4529,0,0,0,0,0,-3.3931,-3.4017,-3.3998,-3.4013,-3.4085,-3.415,-3.4159,-3.4146,-3.4104,-3.4145,-3.415,-3.4118,-3.4248,-3.4202,-3.4217,-3.4275,-3.4405,-3.4414,-3.4423,-3.4494,-3.4513,-3.4529,0,0,0,0,0,0,-3.4001,-3.4019,-3.3999,-3.4095,-3.4121,-3.414,-3.419,-3.4166,-3.4205,-3.4196,-3.4178,-3.4184,-3.4269,-3.428,-3.4228,-3.4379,-3.432,-3.4332,-3.4369,-3.4387,-3.4401,-3.4397,-3.4165,0,0,0,0,0,-3.4027,-3.4079,-3.4092,-3.4175,-3.4189,-3.4188,-3.4215,-3.4203,-3.423,-3.424,-3.4252,-3.4279,-3.4325,-3.4357,-3.44,-3.4501,-3.4506,-3.4548,-3.4563,-3.4574,-3.4585,-3.4639,-3.4658,-3.4456,-3.4456,-3.4455,0,0,-3.4082,-3.4099,-3.4132,-3.4189,-3.4208,-3.4262,-3.4198,-3.4257,-3.4296,-3.4249,-3.4326,-3.4335,-3.4364,-3.4455,-3.4496,-3.4467,-3.4642,-3.4586,-3.4595,-3.4599,-3.465,-3.467,-3.4687,-3.4462,-3.446,-3.446,0,0,-3.421,-3.4228,-3.4299,-3.4319,-3.4349,-3.4348,-3.4365,-3.4387,-3.4392,-3.4468,-3.4434,-3.448,-3.4561,-3.4583,-3.4605,-3.4741,-3.4712,-3.4755,-3.4831,-3.4884,-3.49,-3.4914,-3.4962,-3.498,-3.4766,-3.4766,-3.4766,0,-3.4275,-3.4354,-3.4339,-3.44,-3.4426,-3.4386,-3.4458,-3.4479,-3.4521,-3.454,-3.4506,-3.4607,-3.4624,-3.4719,-3.4753,-3.4771,-3.479,-3.4753,-3.4899,-3.4913,-3.4926,-3.4972,-3.499,-3.4771,-3.4771,-3.477,-3.477,0,-3.4433,-3.4488,-3.4542,-3.4585,-3.4616,-3.4683,-3.4677,-3.4711,-3.4695,-3.4697,-3.4775,-3.4794,-3.484,-3.4862,-3.4847,-3.4956,-3.4937,-3.4902,-3.4842,-3.495,-3.4993,-3.5011,-3.4778,-3.4777,-3.4775,-3.4774,0,0,-3.4607,-3.4639,-3.4659,-3.4678,-3.4708,-3.475,-3.4815,-3.486,-3.489,-3.492,-3.4974,-3.5043,-3.5011,-3.5035,-3.5023,-3.5069,-3.5176,-3.5028,-3.5029,-3.5055,-3.5296,-3.5323,-3.5343,-3.5157,-3.516,-3.5163,-3.5294,0,-3.4736,-3.4848,-3.4836,-3.4943,-3.4994,-3.4956,-3.5012,-3.5036,-3.504,-3.5083,-3.5086,-3.5136,-3.5089,-3.5104,-3.5148,-3.5154,-3.5224,-3.5144,-3.5206,-3.5209,-3.5201,-3.5366,-3.5394,-3.5517,-3.531,-3.5313,-3.5315,0,-3.4902,-3.4938,-3.5051,-3.5072,-3.5093,-3.5144,-3.5185,-3.5227,-3.5253,-3.5252,-3.528,-3.5259,-3.5323,-3.5262,-3.535,-3.5296,-3.532,-3.5327,-3.5331,-3.5337,-3.5269,-3.5376,-3.5555,-3.5574,-3.5342,-3.5339,-3.5338,0,-3.5018,-3.5095,-3.5172,-3.5189,-3.5216,-3.5253,-3.5266,-3.5289,-3.5317,-3.5352,-3.537,-3.5413,-3.5436,-3.5469,-3.546,-3.5416,-3.555,-3.5488,-3.5551,-3.5551,-3.5581,-3.5579,-3.5767,-3.5597,-3.5596,-3.5596,-3.5596,0,-3.5163,-3.5234,-3.5225,-3.5272,-3.535,-3.5334,-3.5411,-3.5419,-3.544,-3.5488,-3.5458,-3.5503,-3.5488,-3.5533,-3.5526,-3.56,-3.5611,-3.5612,-3.5609,-3.5615,-3.5615,-3.5631,-3.5622,-3.5601,-3.56,-3.5599,-3.5598,0,-3.5306,-3.5303,-3.5385,-3.5404,-3.541,-3.5467,-3.5482,-3.5527,-3.5527,-3.5589,-3.5602,-3.5603,-3.5654,-3.5648,-3.5705,-3.5701,-3.5792,-3.578,-3.5784,-3.5781,-3.5844,-3.5838,-3.6049,-3.6076,-3.5888,-3.589,-3.5891,0,-3.54,-3.5453,-3.5478,-3.5508,-3.5524,-3.5573,-3.5601,-3.5588,-3.5619,-3.5652,-3.5693,-3.5741,-3.5779,-3.5862,-3.5868,-3.5911,-3.5899,-3.597,-3.5906,-3.5909,-3.59,-3.5897,-3.5902,-3.5983,-3.5985,-3.5987,-3.5988,0,-3.5566,-3.5562,-3.5604,-3.5647,-3.5682,-3.5715,-3.5744,-3.577,-3.5759,-3.5796,-3.5848,-3.5877,-3.5935,-3.5984,-3.6025,-3.6037,-3.6011,-3.6008,-3.6025,-3.6031,-3.6032,-3.6032,-3.5819,-3.6004,-3.6002,-3.6001,-3.6,-3.6,-3.5687,-3.5733,-3.5757,-3.5806,-3.5826,-3.5854,-3.5897,-3.5903,-3.5946,-3.5993,-3.5982,-3.6041,-3.6065,-3.6117,-3.6134,-3.6179,-3.6153,-3.6178,-3.6184,-3.619,-3.6197,-3.6025,-3.6186,-3.6186,-3.6186,-3.6185,-3.6185,0,-3.5852,-3.5866,-3.591,-3.5953,-3.5991,-3.5963,-3.5994,-3.6027,-3.608,-3.6104,-3.6142,-3.6202,-3.6249,-3.6258,-3.6302,-3.6336,-3.6325,-3.6348,-3.6346,-3.6349,-3.6218,-3.6199,-3.6356,-3.6356,-3.6356,-3.6356,-3.6356,-3.6356,-3.5942,-3.6018,-3.6016,-3.6101,-3.6114,-3.6172,-3.6192,-3.6217,-3.6237,-3.6305,-3.6344,-3.6349,-3.6368,-3.6413,-3.6454,-3.6456,-3.6473,-3.6501,-3.6498,-3.6375,-3.6358,-3.6342,-3.6324,-3.6505,-3.6505,-3.6625,-3.6626,-3.6627]},{"header":{"parameterUnit":"m.s-1","parameterCategory":1,"la1":30.2991,"la2":30.254,"lo1":-89.0895,"lo2":-89.0444,"dy":0.0017,"dx":0.0017,"nx":28,"ny":28,"refTime":"2023-04-08T21:00:00:Z","depth":0,"parameterNumber":3,"parameterNumberName":"V-component_of_WINDS"},"data":[0,0,0,0,0,0,0,0,0,0,0,0,0,0,0,0,0,0,0,0,0,0,0,0,0,0,0,0,0,0,0,0,0,0,0,0,0,0,0,0,0,0,0,0,0,0,0,0,0,0,0,0,0,0,0,0,0,0,-6.8059,-6.806,0,-6.813,-6.8131,-6.8132,-6.8047,-6.8043,-6.804,-6.8037,-6.8105,-6.8109,-6.8114,0,0,0,0,0,0,0,0,0,0,0,0,0,-6.7843,-6.7847,-6.8059,-6.806,-6.8061,-6.813,-6.8131,-6.8132,-6.8047,-6.8043,-6.804,-6.8036,-6.8103,-6.8109,-6.8115,0,0,0,0,0,0,0,0,0,0,0,0,0,-6.7928,-6.7849,-6.8059,-6.8027,-6.8025,-6.813,-6.8131,-6.8132,-6.8048,-6.8043,-6.8039,-6.8034,-6.8101,-6.8108,-6.8115,-6.8253,0,0,-6.8137,-6.814,0,0,0,0,0,0,0,0,-6.7923,-6.7936,-6.8031,-6.8029,-6.8027,-6.8075,-6.8079,-6.8173,-6.8049,-6.8039,-6.8037,-6.8032,-6.8098,-6.8105,-6.8129,-6.8257,-6.826,-6.8138,-6.8142,-6.8145,-6.8147,0,0,0,0,0,0,0,-6.7917,-6.7932,-6.8087,-6.8032,-6.803,-6.8007,-6.8014,-6.8097,-6.8094,-6.804,-6.8034,-6.8043,-6.8096,-6.8122,-6.813,-6.8261,-6.8137,-6.8144,-6.8148,-6.8151,-6.8503,-6.8508,0,0,0,0,0,0,-6.7916,-6.7928,-6.8085,-6.8089,-6.7962,-6.8015,-6.8022,-6.8064,-6.8093,-6.8093,-6.8047,-6.8039,-6.8112,-6.8122,-6.8132,-6.8295,-6.8145,-6.8152,-6.8156,-6.8498,-6.8504,-6.851,0,0,0,0,0,0,-6.7911,-6.7931,-6.8082,-6.8007,-6.8024,-6.8023,-6.8071,-6.8068,-6.8094,-6.8099,-6.8097,-6.8075,-6.8109,-6.8122,-6.8224,-6.8296,-6.8155,-6.8161,-6.8492,-6.85,-6.8507,-6.8622,0,0,0,0,0,0,-6.7906,-6.793,-6.7984,-6.8009,-6.8029,-6.8175,-6.8076,-6.8073,-6.8107,-6.8097,-6.8124,-6.8124,-6.8106,-6.8214,-6.8231,-6.8303,-6.8167,-6.8486,-6.8496,-6.8505,-6.8612,-6.8633,-6.8651,0,0,0,0,0,-6.7898,-6.8012,-6.7987,-6.8006,-6.8097,-6.8179,-6.819,-6.8169,-6.8113,-6.8166,-6.8169,-6.8123,-6.8285,-6.8225,-6.8244,-6.8319,-6.8481,-6.8493,-6.8504,-6.8603,-6.8629,-6.865,0,0,0,0,0,0,-6.7994,-6.8015,-6.7987,-6.8113,-6.8145,-6.8165,-6.8232,-6.8197,-6.8244,-6.8233,-6.8202,-6.8209,-6.8318,-6.8328,-6.8261,-6.8453,-6.8374,-6.8389,-6.8443,-6.8467,-6.8486,-6.8481,-6.8173,0,0,0,0,0,-6.803,-6.8098,-6.8111,-6.8221,-6.8239,-6.8233,-6.8268,-6.8249,-6.828,-6.8293,-6.8303,-6.8333,-6.8391,-6.8429,-6.8483,-6.8613,-6.8617,-6.8674,-6.8693,-6.8709,-6.8723,-6.8791,-6.8816,-6.8548,-6.8548,-6.8547,0,0,-6.8105,-6.8125,-6.8169,-6.8241,-6.8264,-6.8332,-6.8245,-6.8321,-6.8371,-6.8303,-6.8401,-6.841,-6.8441,-6.8558,-6.861,-6.857,-6.8798,-6.8724,-6.8736,-6.8741,-6.8806,-6.8831,-6.8854,-6.8555,-6.8554,-6.8553,0,0,-6.8276,-6.8299,-6.8392,-6.8417,-6.8453,-6.8448,-6.847,-6.8495,-6.8499,-6.8596,-6.8547,-6.8605,-6.8705,-6.8729,-6.8755,-6.8934,-6.8893,-6.8952,-6.9053,-6.912,-6.9141,-6.916,-6.9223,-6.9246,-6.8966,-6.8966,-6.8966,0,-6.8364,-6.8468,-6.8444,-6.8524,-6.8557,-6.85,-6.8594,-6.8618,-6.8669,-6.8691,-6.8646,-6.877,-6.8788,-6.8909,-6.8953,-6.8975,-6.8999,-6.8949,-6.9141,-6.9159,-6.9176,-6.9236,-6.926,-6.8973,-6.8972,-6.8972,-6.8971,0,-6.8573,-6.8645,-6.8716,-6.8769,-6.8809,-6.8895,-6.8883,-6.8926,-6.8903,-6.8902,-6.9001,-6.902,-6.9075,-6.9102,-6.908,-6.922,-6.9194,-6.9146,-6.9065,-6.9209,-6.9265,-6.9287,-6.8983,-6.8981,-6.8979,-6.8977,0,0,-6.8808,-6.8846,-6.8872,-6.8895,-6.893,-6.8984,-6.9067,-6.9123,-6.916,-6.9196,-6.9263,-6.9349,-6.9304,-6.9333,-6.9313,-6.9372,-6.9512,-6.9315,-6.9316,-6.9351,-6.9665,-6.9702,-6.9729,-6.9484,-6.9489,-6.9492,-6.9662,0,-6.8979,-6.9125,-6.9106,-6.9244,-6.931,-6.9257,-6.9328,-6.9356,-6.9357,-6.9411,-6.941,-6.9472,-6.9408,-6.9425,-6.9481,-6.9483,-6.9574,-6.947,-6.9545,-6.9548,-6.9539,-6.9758,-6.9797,-6.9957,-6.9684,-6.9688,-6.9691,0,-6.9199,-6.9245,-6.9391,-6.9415,-6.9442,-6.9507,-6.9556,-6.9609,-6.9638,-6.9635,-6.9667,-6.9636,-6.9716,-6.9634,-6.9743,-6.9673,-6.9702,-6.9708,-6.9713,-6.9719,-6.9628,-6.9769,-7.0007,-7.0031,-6.9725,-6.9722,-6.9719,0,-6.9355,-6.9453,-6.9553,-6.9574,-6.9604,-6.9651,-6.9666,-6.9691,-6.9725,-6.9768,-6.9789,-6.984,-6.9867,-6.9906,-6.9888,-6.9831,-7.0001,-6.9917,-6.9998,-6.9999,-7.0036,-7.0034,-7.0282,-7.0056,-7.0056,-7.0055,-7.0055,0,-6.9548,-6.9639,-6.9623,-6.9685,-6.9784,-6.976,-6.9859,-6.9866,-6.9889,-6.9949,-6.9905,-6.9962,-6.9936,-6.999,-6.9977,-7.0069,-7.0081,-7.0079,-7.0074,-7.0083,-7.0084,-7.0102,-7.009,-7.0062,-7.006,-7.0059,-7.0058,0,-6.9739,-6.9732,-6.9837,-6.9858,-6.9865,-6.9938,-6.9954,-7.001,-7.0008,-7.0084,-7.0101,-7.0096,-7.0158,-7.0144,-7.0211,-7.0202,-7.0317,-7.0299,-7.0308,-7.0304,-7.0385,-7.0377,-7.0653,-7.0688,-7.044,-7.0442,-7.0444,0,-6.9863,-6.9932,-6.996,-6.9999,-7.0017,-7.0079,-7.0114,-7.0092,-7.013,-7.0169,-7.022,-7.0278,-7.0324,-7.0425,-7.0426,-7.0477,-7.0458,-7.0552,-7.0466,-7.0472,-7.0459,-7.0455,-7.0461,-7.0569,-7.0571,-7.0574,-7.0576,0,-7.0083,-7.0077,-7.013,-7.0183,-7.0227,-7.0267,-7.0302,-7.0335,-7.0316,-7.036,-7.0424,-7.0459,-7.0528,-7.0586,-7.0633,-7.0645,-7.0607,-7.0603,-7.0624,-7.0633,-7.0636,-7.0635,-7.0354,-7.0596,-7.0594,-7.0593,-7.0592,-7.0591,-7.0244,-7.0303,-7.0332,-7.0393,-7.0418,-7.0451,-7.0505,-7.051,-7.0563,-7.0619,-7.0602,-7.0674,-7.0699,-7.0759,-7.0777,-7.0831,-7.0796,-7.0827,-7.0834,-7.0842,-7.0852,-7.0628,-7.0839,-7.0839,-7.0838,-7.0838,-7.0837,0,-7.0462,-7.0478,-7.0535,-7.0586,-7.0634,-7.0595,-7.0632,-7.0673,-7.0738,-7.0766,-7.0812,-7.0884,-7.094,-7.0945,-7.0997,-7.1039,-7.1023,-7.1054,-7.105,-7.1053,-7.0881,-7.0858,-7.1066,-7.1066,-7.1066,-7.1066,-7.1066,-7.1066,-7.0581,-7.0678,-7.0674,-7.0782,-7.0796,-7.0868,-7.0892,-7.0923,-7.0945,-7.1028,-7.1075,-7.1078,-7.1097,-7.115,-7.1198,-7.1198,-7.1218,-7.1256,-7.1249,-7.1088,-7.1066,-7.1044,-7.1021,-7.1261,-7.1261,-7.1416,-7.1418,-7.1419]}]]